Location: Lake Sonoma
(38.7200°N, 123.0564°W)
Time: 20:45:20
(UTC-07:00)

ISS - All Passes

Search period start: 31 July 2014 00:00
Search period end: 10 August 2014 00:00
Orbit: 411 x 419 km, 51.6° (Epoch: 31 July)

Date Brightness Start Highest point End Pass type
(mag) Time Alt. Az. Time Alt. Az. Time Alt. Az.
31 Jul - 00:35:46 10° WNW 00:38:20 20° NNW 00:40:54 10° NNE visible
31 Jul - 03:52:25 10° NNW 03:54:03 13° NNE 03:55:40 10° NE visible
31 Jul - 05:28:08 10° NW 05:31:24 48° NE 05:34:40 10° ESE visible
31 Jul - 07:05:37 10° W 07:07:51 17° SW 07:10:04 10° S daylight
31 Jul - 22:09:39 10° SSW 22:12:38 31° SE 22:15:38 10° ENE night (unlit)
31 Jul - 23:46:22 10° W 23:49:20 29° NNW 23:52:19 10° NNE night (unlit)
01 Aug - 01:26:13 10° NNW 01:26:55 11° N 01:27:38 10° N visible
01 Aug - 03:04:05 10° N 03:04:54 11° N 03:05:44 10° NNE visible
01 Aug - 04:39:27 10° NNW 04:42:29 30° NNE 04:45:30 10° E visible
01 Aug - 06:16:11 10° WNW 06:19:10 30° SW 06:22:08 10° SSE daylight
01 Aug - 21:21:40 10° S 21:23:56 17° SE 21:26:13 10° E visible
01 Aug - 22:57:10 10° WSW 23:00:24 46° NW 23:03:38 10° NE visible
02 Aug - 00:36:14 10° NW 00:37:47 13° NNW 00:39:19 10° NNE visible
02 Aug - 03:50:51 10° NNW 03:53:29 21° NNE 03:56:06 10° ENE visible
02 Aug - 05:27:07 10° WNW 05:30:25 56° SW 05:33:42 10° SE visible
02 Aug - 22:08:12 10° SW 22:11:31 83° NW 22:14:52 10° NE visible
02 Aug - 23:46:31 10° WNW 23:48:40 16° NNW 23:50:49 10° NNE visible
03 Aug - 03:02:18 10° NNW 03:04:25 16° NNE 03:06:32 10° ENE visible
03 Aug - 04:38:13 10° NW 04:41:35 77° NE 04:44:56 10° SE visible
03 Aug - 06:17:24 10° WSW 06:17:50 10° SW 06:18:16 10° SW daylight
03 Aug - 21:19:28 10° SW 21:22:42 52° SE 21:25:57 10° ENE visible
03 Aug - 22:56:57 10° WNW 22:59:36 21° NNW 23:02:15 10° NNE visible
04 Aug - 02:13:49 10° N 02:15:17 12° NNE 02:16:46 10° NE visible
04 Aug - 03:49:27 10° NW 03:52:41 43° NE 03:55:55 10° ESE visible
04 Aug - 05:26:45 10° W 05:29:11 19° SW 05:31:36 10° S visible
04 Aug - 20:31:04 10° SSW 20:33:56 27° SE 20:36:49 10° ENE daylight
04 Aug - 22:07:34 10° W 22:10:35 31° NNW 22:13:37 10° NE visible
04 Aug - 23:47:15 10° NNW 23:48:08 11° N 23:49:01 10° N visible
05 Aug - 01:25:33 10° N 01:26:07 10° N 01:26:41 10° NNE visible
05 Aug - 03:00:46 10° NNW 03:03:43 28° NNE 03:06:40 10° E night (unlit)
05 Aug - 04:37:23 10° WNW 04:40:27 34° SW 04:43:31 10° SSE visible
05 Aug - 19:43:12 10° SSE 19:45:13 15° SE 19:47:15 10° E daylight
05 Aug - 21:18:23 10° WSW 21:21:37 51° NW 21:24:54 10° NE visible
05 Aug - 22:57:18 10° NW 22:58:57 13° NNW 23:00:37 10° NNE visible
06 Aug - 02:12:09 10° NNW 02:14:40 19° NNE 02:17:12 10° ENE night (unlit)
06 Aug - 03:48:19 10° WNW 03:51:39 65° SW 03:54:58 10° SE night (unlit)
06 Aug - 20:29:25 10° SW 20:32:44 87° SE 20:36:04 10° NE daylight
06 Aug - 22:07:34 10° WNW 22:09:49 17° NNW 22:12:05 10° NNE visible
07 Aug - 01:23:35 10° NNW 01:25:34 15° NNE 01:27:33 10° NE visible
07 Aug - 02:59:26 10° NW 03:02:47 68° NE 03:06:07 10° ESE night (unlit)
07 Aug - 04:37:50 10° WSW 04:39:05 12° SW 04:40:19 10° SSW night (unlit)
07 Aug - 19:40:43 10° SSW 19:43:53 45° SE 19:47:05 10° ENE daylight
07 Aug - 21:18:01 10° W 21:20:44 23° NNW 21:23:29 10° NNE visible
08 Aug - 00:35:05 10° N 00:36:24 12° NNE 00:37:42 10° NE visible
08 Aug - 02:10:39 10° NW 02:13:50 39° NNE 02:17:01 10° ESE night (unlit)
08 Aug - 03:47:46 10° W 03:50:22 21° SW 03:52:58 10° S night (unlit)
08 Aug - 18:52:22 10° S 18:55:06 24° SE 18:57:52 10° ENE daylight
08 Aug - 20:28:38 10° W 20:31:42 34° NNW 20:34:47 10° NE daylight
08 Aug - 22:08:09 10° NNW 22:09:12 11° NNW 22:10:15 10° N visible
09 Aug - 01:21:57 10° NNW 01:24:49 25° NNE 01:27:41 10° E visible
09 Aug - 02:58:27 10° WNW 03:01:36 38° SW 03:04:44 10° SSE night (unlit)
09 Aug - 18:04:40 10° SSE 18:06:23 14° SE 18:08:06 10° E daylight
09 Aug - 19:39:27 10° WSW 19:42:44 58° NW 19:46:01 10° NE daylight
09 Aug - 21:18:13 10° NW 21:20:00 14° NNW 21:21:48 10° NNE visible
